Showing default

NAVSTAR 71 (USA 256), 40105

Orbit data source: Space-Track

NAVSTAR 71 (USA 256), 40105 is a payload satellite owned by USAF SMC (US) in MEO that was launched on Sat, 02 Aug 2014 UTC via an ATLAS V 401 launch vehicle from the Air Force Eastern Test Range (AFETR). Payload-class satellites include a variety of spacecraft equipped with specific instruments for various scientific and technological missions. These include communications satellites like Starlink; space stations such as the ISS; scientific satellites like the Hubble; Earth observation satellites from companies like Planet Labs, Umbra, and HawkEye 360; GPS; miniature CubeSats for education and research; and military/defense satellites.

Loading next visibility...
Identifier
40105, 2014-045A
Orbit
MEO
Country
Flag of USUS
Related business
Manufacturer
Boeing/ES
Mission
Operational Defense Navigation
Bus & Motor
GPS IIF, AOCS
Mass
1,630 kg wet, ~1,500 kg dry
Launch date (UTC)
2014-08-02 (12 years ago)
Launch vehicle
ATLAS V 401
Launch site
Air Force Eastern Test Range (AFETR)
Object type
Payload
Rocket body
Debris
Shape & HBR
Box + 2 Pan, 9.0 m
Radar Cross Section
13.960 m², Large (>1 m²)

Expand to show TLE details & history
Last TLE update: 2 days ago

TLE from 2 days ago
0 NAVSTAR 71 (USA 256)
1 40105U 14045A   26171.04506235 -.00000025  00000-0  00000+0 0  9993
2 40105  55.3550  88.3511 0033436 118.2269 242.1176  2.00558575 86137
Epoch: 2026-06-20T01:04Z
TLE epoch observation values (Epoch: 2026-06-20T01:04:53.387Z)
Latitude
0.00001°
Longitude
163.86865°
Altitude
20,224.676 km
Speed
3.868 km/s
True Right ascension
05h 53m 25s
True Declination
0° 00' 00"
Sunlit
Object was in daylight at epoch
Visualization orbit readout
Latitude
Unknown
Longitude
Unknown
Altitude
Unknown
Speed
Unknown
Apparent Right ascension
Unknown
Apparent Declination
Unknown
Sunlit
N/A
Visualization observer readout
Local Sidereal Time
21:40:06
Azimuth
Unknown
Elevation
Unknown
Doppler factor
Unknown
Orbital elements
Apogee altitude
20,271.454 km
Perigee altitude
20,093.837 km
Semi-major axis
26,560.783 km
Eccentricity
0.00334
Inclination
55.355°
RAAN
88.3511°
Arg. of periapsis
118.2269°
True anomaly
241.77959°
Mean anomaly
242.1176°
Eccentric anomaly
241.94853°
Mean motion
0.5014 °/min
Orbital period
717.99 mins
BSTAR
0
Loading maneuver chart data...
Computing Atmospheric mass density...
Loading historical data...
Loading historical data...
Loading historical data...
Loading historical data...
Loading historical data...
Loading historical data...
Loading historical data...
Other satellites on launch #45 in the year 2014 (2014-08-02 UTC)

Documentation

Showing up to 5 results
|